Regional Weather Roundup
Issued by NWS

Home | Current Version | Previous Version | Text Only | Print | Product List | Glossary On
Versions: 1 2 3 4 5 6 7 8 9 10 11 12 13 14 15 16 17 18 19 20 21 22 23 24 25 26 27 28 29 30 31 32 33 34 35 36 37 38 39 40 41 42 43 44 45 46 47 48 49 50
000
ASUS46 KLOX 290412
RWRCA

SOUTHERN CALIFORNIA WEATHER ROUNDUP
NATIONAL WEATHER SERVICE OXNARD CALIFORNIA
800 PM PST SUN DEC 28 2014

NOTE: "FAIR" INDICATES FEW OR NO CLOUDS BELOW 12,000 FEET WITH NO
SIGNIFICANT WEATHER AND/OR OBSTRUCTIONS TO VISIBILITY.

  -  STATIONS PRECEEDED BY AN ASTERISK (*) ARE NOT NWS OR FAA
     STATIONS AND ARE NOT SUBJECT TO NWS AND FAA QUALITY CONTROL.

CAZ041-042-087-290500-
LA AND ORANGE COUNTY COASTAL AREAS


CITY           SKY/WX    TMP DP  RH WIND       PRES   REMARKS
L.A. DOWNTOWN  CLEAR     50  40  68 CALM      30.18F
L.A. AIRPORT   PTCLDY    54  43  66 SE5       30.19S
LONG BEACH     CLEAR     51  41  68 CALM      30.19S

CITY           SKY/WX    TMP DP  RH WIND       PRES   REMARKS
AVALON           N/A    N/A N/A N/A MISG        N/A
FULLERTON      CLEAR     51  39  63 E3        30.19S
*GETTY CENTER    N/A    N/A N/A N/A NE3         N/A
HAWTHORNE      CLEAR     54  43  66 CALM      30.19S
*LOS ALAMITOS  FAIR      51  41  70 E3        30.20R
*REDONDO BEACH   N/A     50  41  69 CALM      30.18S
SANTA ANA      CLEAR     56  39  53 CALM      30.20R
STA MONICA APT CLEAR     52  40  63 N3        30.19S
TORRANCE       CLEAR     50  45  81 S7        30.19S
*UCLA            N/A     50  37  62 N6        30.16S

$$

CAZ547-548-048-290500-
LA COUNTY VALLEYS AND INLAND EMPIRE


CITY           SKY/WX    TMP DP  RH WIND       PRES   REMARKS
BURBANK        CLEAR     49  34  56 CALM      30.18R
VAN NUYS       CLEAR     49  35  58 CALM      30.18S

CITY           SKY/WX    TMP DP  RH WIND       PRES   REMARKS
CORONA AIRPORT CLEAR     41  32  70 CALM      30.20R
*CHATSWORTH      N/A     48  37  64 CALM      30.19S
CHINO          CLEAR     49  34  56 NW5       30.20R
MARCH AFB      CLEAR     38  30  73 CALM      30.18R
*NORTHRIDGE      N/A     46  32  57 CALM        N/A
ONTARIO        PTCLDY    49  31  49 W3        30.18S
*PASADENA        N/A     50  34  53 CALM        N/A
POMONA         CLEAR     43  32  65 CALM      30.21
RIVERSIDE      CLEAR     49  30  48 CALM      30.19R
SAN BERNARDINO CLEAR     46  23  39 CALM      30.19R
*WHITEMAN AP   NOT AVBL
*WOODLAND HILL   N/A     45  37  76 SE1         N/A

$$

CAZ054-055-290500-
LA AND SAN BERNARDINO COUNTY MOUNTAINS


CITY           SKY/WX    TMP DP  RH WIND       PRES   REMARKS
*ACTON           N/A     38  22  53 CALM        N/A
*BIG BEAR AIRP CLEAR     28  14  54 CALM      30.18S
*BIG PINES       N/A     38  21  50 CALM        N/A
MT WILSON NWS    N/A    N/A N/A N/A MISG        N/A
SANDBERG       CLEAR     38  16  40 N9        30.18S WCI  31
*WARM SPRINGS    N/A     42  14  32 W6G18       N/A

$$

CAZ028-029-059-060-099-290500-
ANTELOPE VALLEY AND SURROUNDING AREAS


CITY           SKY/WX    TMP DP  RH WIND       PRES   REMARKS
LANCASTER      CLEAR     35  22  58 MISG      30.15S
PALMDALE       CLEAR     43  22  43 SW6       30.15S

CITY           SKY/WX    TMP DP  RH WIND       PRES   REMARKS
29 PALMS       CLEAR     37   9  31 S3        30.22F
BARSTOW/DAGGET CLEAR     37  15  40 CALM      30.15F
BISHOP         CLEAR     26   6  42 NW7       30.13R WCI  18
CHINA LAKE     CLEAR     32  19  58 CALM      30.14R
EDWARDS AFB    CLEAR     33  25  72 E1        30.12F
MOJAVE         FAIR      39  16  38 N7        30.12F WCI  34
NEEDLES        CLEAR     43  13  29 W7        30.17F
VICTORVILLE    CLEAR     37  18  44 S3        30.14S

$$

CAZ039-040-290500-
VENTURA AND SANTA BARBARA COUNTY COAST


CITY           SKY/WX    TMP DP  RH WIND       PRES   REMARKS
CAMARILLO      CLEAR     47  39  74 NE5       30.19R
NWS OXNARD       N/A     47  39  74 CALM      30.18R
OXNARD AIRPORT CLEAR     50  41  71 NE5       30.19R
*POINT MUGU    CLEAR     52  41  66 NE6       30.20R
SBA APT/GOLETA CLEAR     48  41  76 NE3       30.18R
*SANTA BARBARA   N/A     51  39  63 CALM      30.26S
*VENTURA         N/A     49  37  64 W3        30.23S

$$

CAZ044-045-290500-
VENTURA COUNTY VALLEYS


CITY           SKY/WX    TMP DP  RH WIND       PRES   REMARKS
*SIMI VALLEY     N/A     44  38  77 CALM      30.19S
*OJAI            N/A     40  35  83 CALM      30.18R
*FILLMORE        N/A     44  35  70 CALM      30.10S

$$

CAZ053-290500-
VENTURA COUNTY MOUNTAINS


CITY           SKY/WX    TMP DP  RH WIND       PRES   REMARKS
*LOCKWOOD VLY    N/A     28  12  50 MISG        N/A
*ROSE VALLEY     N/A     32  30  93 MISG        N/A

$$

CAZ034-035-036-290500-
CENTRAL COAST AND SANTA YNEZ VALLEY


CITY           SKY/WX    TMP DP  RH WIND       PRES   REMARKS
SAN LUIS OBISP CLEAR     46  37  71 CALM      30.22R
SANTA MARIA    CLEAR     51  41  68 CALM      30.21R

CITY           SKY/WX    TMP DP  RH WIND       PRES   REMARKS
*CAL POLY SLO    N/A     54  36  50 W7G13       N/A
*LOMPOC        CLEAR     48  39  71 W3        30.20S
*PISMO BEACH     N/A     52  37  57 NE3       30.22R
*SANTA YNEZ    FAIR      48  37  66 CALM      30.20R

$$

CAZ037-038-051-290500-
SAN LUIS OBISPO COUNTY INTERIOR AND CUYAMA VALLEY


CITY           SKY/WX    TMP DP  RH WIND       PRES   REMARKS
*CUYAMA          N/A     41  30  65 CALM      30.27R
PASO ROBLES    CLEAR     44  37  76 E10       30.24S

$$

CAZ032-033-061-290500-
SOUTHERN DESERTS


CITY           SKY/WX    TMP DP  RH WIND       PRES   REMARKS
BLYTHE         CLEAR     42  21  43 W3        30.18S
IMPERIAL       CLEAR     46  21  37 CALM      30.18S
PALM SPRINGS   CLEAR     48  20  32 NW6       30.20R
THERMAL        CLEAR     37  19  48 N3        30.18S

$$

ELSEWHERE ACROSS THE WESTERN UNITED STATES AND MEXICO


CITY           SKY/WX    TMP DP  RH WIND       PRES   REMARKS
DENVER, CO     PTCLDY    18   9  68 S10       29.92R WCI   6
GRAND CANYON,  CLEAR     15   8  73 NE3       30.10R
HONOLULU, HI   PTCLDY    72  57  60 NE9       29.92R
KAHULUI, MAUI  PTCLDY    73  57  56 N10       29.93R
LAKE TAHOE, CA CLEAR     29  18  63 S3        30.16S
LAS VEGAS, NV  CLEAR     41  13  31 SW3       30.09S
MAMMOTH LAKES, FAIR      34   0  23 NW10      30.14S WCI  26
MEXICO CITY, M CLEAR     61  45  55 CALM      30.34R
PHOENIX, AZ    PTCLDY    48  25  40 W3        30.14R
PORTLAND, OR   CLOUDY    44  39  82 NW3       30.21R
RENO, NV       CLEAR     42  15  33 NW16      30.12R WCI  34
SALT LAKE CITY FLURRIES  28  26  92 SE6       30.04F WCI  22
SAN DIEGO, CA  PTCLDY    54  39  57 CALM      30.22S
SAN FRANCISCO, PTCLDY    55  49  80 CALM      30.25S
SAN JOSE, CA   CLEAR     47  42  83 CALM      30.26S
SEATTLE, WA    LGT RAIN  40  36  86 SE7       30.15S
TIJUANA, MEX   PTCLDY    50  36  57 N6        30.23S

$$

STATION/POSITION TIME  TEMP    WIND        PRES    VSBY  WAVE
                       AIR SEA DIR/SP/G                  HT/PER
                 (UTC) (F)     (DEG/KT/KT) (MB)    (MI)  (FT/S)
POINT ARGUELLO B NOT AVBL
WEST SANTA BARBA 0400   59 62  330/ 21/ 25 1021.1F         7/14
POINT CONCEPTION NOT AVBL
EAST SANTA BARBA NOT AVBL
SANTA MONICA BAY 0400   58 63  290/  2/  4 1022.3R         2/14


USA.gov is the U.S. government's official web portal to all federal, state and local government web resources and services.